Find Starlink 1273

NORAD ID: 45367 Int'l Des: 2020-019 Owner: SPXS Country: US Constellation: starlink operational
LEOCIRCULAR

当前视图

正在加载3D地球...

About Starlink 1273

Starlink 1273 (NORAD 45367) is a starlink constellation satellite (v1.0) launched Mar 18, 2020 by SPXS of US. It operates in LEO, CIRCULAR orbit with a mass of 260.00 kg.

关于 Starlink 1273

正在加载描述...

即将过境

Passes for default location (London). Set your location on the main map for personalized predictions.

高度历史

Loading altitude history...

两行轨道根数

1 45367U 20019H 26168.89230297 .00065916 00000-0 85370-3 0 9993
2 45367 53.0440 32.8250 0003915 97.0869 263.0588 15.58290922345456
Epoch: Jun 17, 2026 • Age: 12 hours

当前状态

高度 405.8 km
速度 7.67 km/s
星下点 -35.29°S, 51.22°W
发射日期 Mar 18, 2020
运行时间 6.2 years
类型 internet

技术详情

分类 Payload
质量 260.00 kg
干质量 248.00 kg
总质量 260.00 kg
长度 0.20 m
直径 2.80 m
跨度 9.00 m
形状 Box + pan
制造商 SPXS
平台类型 Starlink
阶段状态 In Orbit
所有者/国家 SPXS/US

Most Searched